Regional Weather Roundup
Issued by NWS

Home | Current Version | Previous Version | Graphics & Text | Print | Product List | Glossary On
Versions: 1 2 3 4 5 6 7 8 9 10 11 12 13 14 15 16 17 18 19 20 21 22 23 24 25 26 27 28 29 30 31 32 33 34 35 36 37 38 39 40 41 42 43 44 45 46 47 48 49 50
431
ASUS43 KBIS 221502
RWRND

NORTH DAKOTA REGIONAL WEATHER ROUNDUP
NATIONAL WEATHER SERVICE BISMARCK ND
1000 AM CDT THU JUN 22 2017

NOTE: "FAIR" INDICATES FEW OR NO CLOUDS BELOW 12,000 FEET WITH NO
SIGNIFICANT WEATHER AND/OR OBSTRUCTIONS TO VISIBILITY.


NDZ001>003-009>011-017-221600-
NORTHWEST NORTH DAKOTA

CITY           SKY/WX    TMP DP  RH WIND       PRES   REMARKS
WILLISTON      SUNNY     64  43  46 W16       29.87R
MINOT          SUNNY     66  43  43 W20G26    29.78R
MINOT AFB      SUNNY     65  43  46 NW21G26   29.76R
$$

NDZ018>021-031>035-040>046-221600-
SOUTHWEST NORTH DAKOTA

CITY           SKY/WX    TMP DP  RH WIND       PRES   REMARKS
BISMARCK       CLOUDY    67  44  43 NW16G25   29.83S
DICKINSON      SUNNY     64  41  42 NW20G25   29.87S
GARRISON         N/A     64  44  48 NW16G25   29.82R
HETTINGER ARPT CLOUDY    67  39  35 NW20G28   29.92R
$$

NDZ004>008-012>016-024-026-027-054-221600-
NORTHEAST NORTH DAKOTA

CITY           SKY/WX    TMP DP  RH WIND       PRES   REMARKS
GRAND FORKS    CLOUDY    64  52  64 SW8       29.71F
GRND FRKS AFB  CLOUDY    63  51  65 SW7       29.72S
DEVILS LAKE    SUNNY     66  49  54 W17       29.74S
$$

NDZ022-023-025-028>030-036>039-047>053-221600-
SOUTHEAST NORTH DAKOTA

CITY           SKY/WX    TMP DP  RH WIND       PRES   REMARKS
FARGO          PTSUNNY   71  47  42 NW12      29.74S
JAMESTOWN      CLOUDY    65  47  52 NW13      29.77F
$$





USA.gov is the U.S. government's official web portal to all federal, state and local government web resources and services.